GW0552 Weather Reports


time (UTC)temp
F
wind
direction
speed
knots
gust
knots
rain 1hr
in
rain 24hr
in
rain mn
in
humidity
%
barometer
mb
20260904152147 91 24 1.7 2.6 0.00 0.00 0.00 70 1012.9
20260904151642 91 7 1.7 1.7 0.00 0.00 0.00 71 1013.0
20260904151141 90 52 0.0 0.0 0.00 0.00 0.00 75 1012.9
20260904150636 89 54 0.0 0.9 0.00 0.00 0.00 76 1012.9
20260904150132 89 41 0.0 0.0 0.00 0.00 0.00 78 1012.9
20260904145630 89 48 0.9 0.9 0.00 0.00 0.00 78 1012.6
20260904145126 89 304 4.3 4.3 0.00 0.00 0.00 75 1012.9
20260904144621 88 56 0.0 0.0 0.00 0.00 0.00 81 1012.8
20260904144117 87 26 0.0 0.0 0.00 0.00 0.00 81 1012.6
20260904143613 86 32 0.0 0.0 0.00 0.00 0.00 85 1013.0
20260904143109 86 42 0.9 1.7 0.00 0.00 0.00 87 1012.9
20260904142605 86 303 2.6 2.6 0.00 0.00 0.00 83 1012.9
20260904142100 86 112 1.7 1.7 0.00 0.00 0.00 85 1013.0
20260904141555 86 27 0.0 0.0 0.00 0.00 0.00 90 1012.9
20260904141050 86 39 0.0 0.0 0.00 0.00 0.00 95 1013.0
20260904140546 85 38 0.0 0.0 0.00 0.00 0.00 95 1013.0
20260904140040 85 40 0.0 0.0 0.00 0.00 0.00 96 1012.8
20260904135539 84 41 0.0 0.0 0.00 0.00 0.00 94 1012.6
20260904135035 83 48 0.0 0.0 0.00 0.00 0.00 96 1012.7
20260904134531 83 47 0.0 0.0 0.00 0.00 0.00 98 1013.0
20260904134025 82 42 0.0 0.0 0.00 0.00 0.00 99 1013.0
20260904133519 81 42 0.0 0.0 0.00 0.00 0.00 99 1013.1
20260904133015 81 43 0.0 0.0 0.00 0.00 0.00 99 1013.0
20260904132510 80 45 0.0 0.0 0.00 0.00 0.00 99 1013.1
20260904132010 79 43 0.0 0.0 0.00 0.00 0.00 99 1013.1
20260904131504 78 42 0.0 0.0 0.00 0.00 0.00 99 1013.2
20260904131001 77 45 0.0 0.0 0.00 0.00 0.00 99 1013.2
20260904130459 77 45 0.0 0.0 0.00 0.00 0.00 99 1013.2
20260904125954 75 47 0.0 0.0 0.00 0.00 0.00 99 1013.2
20260904125451 75 44 0.0 0.0 0.00 0.00 0.00 99 1013.1
20260904124950 75 56 0.0 0.0 0.00 0.00 0.00 99 1012.9
20260904124446 74 56 0.0 0.0 0.00 0.00 0.00 99 1013.2
20260904123942 74 56 0.0 0.0 0.00 0.00 0.00 99 1012.8
20260904123436 74 61 0.0 0.0 0.00 0.00 0.00 99 1013.0
20260904122932 73 63 0.0 0.0 0.00 0.00 0.00 99 1012.8
20260904122431 73 63 0.0 0.0 0.00 0.00 0.00 99 1012.8
20260904121926 73 61 0.0 0.0 0.00 0.00 0.00 99 1013.0
20260904121422 72 61 0.0 0.0 0.00 0.00 0.00 99 1013.0
20260904120919 72 61 0.0 0.0 0.00 0.00 0.00 99 1013.1
20260904120414 72 61 0.0 0.0 0.00 0.00 0.00 99 1013.0
20260904115909 72 62 0.0 0.0 0.00 0.00 0.00 99 1013.0
20260904115405 72 61 0.0 0.0 0.00 0.00 0.00 99 1012.8
20260904114859 72 61 0.0 0.0 0.00 0.00 0.00 99 1012.9
20260904114354 72 61 0.0 0.0 0.00 0.00 0.00 99 1012.7
20260904113849 71 61 0.0 0.0 0.00 0.00 0.00 99 1012.8
20260904113348 71 66 0.0 0.0 0.00 0.00 0.00 99 1012.6
20260904112843 71 61 0.0 0.0 0.00 0.00 0.00 99 1012.4
20260904112339 71 62 0.0 0.0 0.00 0.00 0.00 99 1012.5
20260904111834 71 62 0.0 0.0 0.00 0.00 0.00 99 1012.3
20260904111330 71 62 0.0 0.0 0.00 0.00 0.00 99 1012.3
20260904110826 71 62 0.0 0.0 0.00 0.00 0.00 99 1012.4
20260904110325 71 62 0.0 0.0 0.00 0.00 0.00 99 1012.2
20260904105824 71 61 0.0 0.0 0.00 0.00 0.00 99 1012.3
20260904105319 71 61 0.0 0.0 0.00 0.00 0.00 99 1012.5
20260904104815 71 61 0.0 0.0 0.00 0.00 0.00 99 1012.4
20260904104310 71 61 0.0 0.0 0.00 0.00 0.00 99 1012.3
20260904103807 71 61 0.0 0.0 0.00 0.00 0.00 99 1012.3
20260904103306 71 61 0.0 0.0 0.00 0.00 0.00 99 1012.3
20260904102802 71 61 0.0 0.0 0.00 0.00 0.00 99 1012.3
20260904102258 71 61 0.0 0.0 0.00 0.00 0.00 99 1012.1
20260904101754 71 61 0.0 0.0 0.00 0.00 0.00 99 1012.2
20260904101249 71 61 0.0 0.0 0.00 0.00 0.00 99 1012.2
20260904100745 72 62 0.0 0.0 0.00 0.00 0.00 99 1012.1
20260904100241 72 66 0.0 0.0 0.00 0.00 0.00 99 1012.2
20260904095740 71 63 0.0 0.0 0.00 0.00 0.00 99 1012.2
20260904095235 72 63 0.0 0.0 0.00 0.00 0.00 99 1012.2
20260904094730 71 62 0.0 0.0 0.00 0.00 0.00 99 1012.2
20260904094225 72 60 0.0 0.0 0.00 0.00 0.00 99 1012.1
20260904093722 72 60 0.0 0.0 0.00 0.00 0.00 99 1012.2
20260904093221 72 60 0.0 0.0 0.00 0.00 0.00 99 1012.0
20260904092717 72 61 0.0 0.0 0.00 0.00 0.00 99 1011.9
20260904092213 72 61 0.0 0.0 0.00 0.00 0.00 99 1012.1
20260904091709 72 64 0.0 0.0 0.00 0.00 0.00 99 1012.1
20260904091204 72 64 0.0 0.0 0.00 0.00 0.00 99 1012.1
20260904090659 72 64 0.0 0.0 0.00 0.00 0.00 99 1011.9
20260904090154 72 64 0.0 0.0 0.00 0.00 0.00 99 1011.9
20260904085649 72 63 0.0 0.0 0.00 0.00 0.00 99 1012.0
20260904085144 72 64 0.0 0.0 0.00 0.00 0.00 99 1011.7
20260904084639 72 64 0.0 0.0 0.00 0.00 0.00 99 1011.9
20260904084136 72 62 0.0 0.0 0.00 0.00 0.00 99 1011.8
20260904083632 72 64 0.0 0.0 0.00 0.00 0.00 99 1011.9
20260904083127 73 64 0.0 0.0 0.00 0.00 0.00 99 1011.8
20260904082622 72 74 0.0 0.0 0.00 0.00 0.00 99 1011.6
20260904082117 73 65 0.0 0.0 0.00 0.00 0.00 99 1011.7
20260904081613 73 64 0.0 0.0 0.00 0.00 0.00 99 1011.8
20260904081108 73 64 0.0 0.0 0.00 0.00 0.00 99 1011.8
20260904080604 73 65 0.0 0.0 0.00 0.00 0.00 99 1011.6
20260904080100 73 63 0.0 0.0 0.00 0.00 0.00 99 1011.7
20260904075555 73 65 0.0 0.0 0.00 0.00 0.00 99 1011.8
20260904075050 73 71 0.0 0.0 0.00 0.00 0.00 99 1011.6
20260904074549 73 66 0.0 0.0 0.00 0.00 0.00 99 1011.8
20260904074044 73 62 0.0 0.0 0.00 0.00 0.00 99 1011.9
20260904073539 73 65 0.0 0.0 0.00 0.00 0.00 99 1011.9
20260904073035 73 71 0.0 0.0 0.00 0.00 0.00 99 1011.7
20260904072531 73 66 0.0 0.0 0.00 0.00 0.00 99 1012.0
20260904072026 73 63 0.0 0.0 0.00 0.00 0.00 99 1011.9
20260904071521 73 63 0.0 0.0 0.00 0.00 0.00 99 1012.1
20260904071016 73 62 0.0 0.0 0.00 0.00 0.00 99 1011.9
20260904070515 73 62 0.0 0.0 0.00 0.00 0.00 99 1012.1
20260904070010 73 62 0.0 0.0 0.00 0.00 0.00 99 1011.9
20260904065505 73 62 0.0 0.0 0.00 0.00 0.00 99 1012.0
20260904065001 73 62 0.0 0.0 0.00 0.00 0.00 99 1012.0
20260904064456 73 63 0.0 0.0 0.00 0.00 0.00 99 1011.9
20260904063951 73 65 0.0 0.0 0.00 0.00 0.00 99 1011.9
20260904063448 74 63 0.0 0.0 0.00 0.00 0.00 99 1012.0
20260904062942 74 65 0.0 0.0 0.00 0.00 0.00 99 1012.1
20260904062439 74 67 0.0 0.0 0.00 0.00 0.00 99 1012.2
20260904061934 74 65 0.0 0.0 0.00 0.00 0.00 99 1012.2
20260904061431 74 63 0.0 0.0 0.00 0.00 0.00 99 1012.2
20260904060926 74 63 0.0 0.0 0.00 0.00 0.00 99 1012.4
20260904060422 74 63 0.0 0.0 0.00 0.00 0.00 99 1012.4
20260904055917 74 70 0.0 0.0 0.00 0.00 0.00 99 1012.4
20260904055413 74 71 0.0 0.0 0.00 0.00 0.00 99 1012.4
20260904054909 74 72 0.0 0.0 0.00 0.00 0.00 99 1012.4
20260904054404 74 73 0.0 0.0 0.00 0.00 0.00 99 1012.6
20260904053900 74 74 0.0 0.0 0.00 0.00 0.00 99 1012.7
20260904053358 74 62 0.0 0.0 0.00 0.00 0.00 99 1012.7
20260904052854 74 59 0.0 0.0 0.00 0.00 0.00 99 1012.6
20260904052351 74 45 0.0 0.0 0.00 0.00 0.00 99 1012.5
20260904051847 74 45 0.0 0.0 0.00 0.00 0.00 99 1012.6
20260904051342 74 60 0.0 0.0 0.00 0.00 0.00 99 1012.5
20260904050837 74 60 0.0 0.0 0.00 0.00 0.00 99 1012.4
20260904050334 74 60 0.0 0.0 0.00 0.00 0.00 99 1012.4
20260904045834 75 60 0.0 0.0 0.00 0.00 0.00 99 1012.6
20260904045329 75 60 0.0 0.0 0.00 0.00 0.00 99 1012.3
20260904044829 75 60 0.0 0.0 0.00 0.00 0.00 99 1012.2
20260904044325 75 61 0.0 0.0 0.00 0.00 0.00 99 1012.4
20260904043821 74 46 0.0 0.0 0.00 0.00 0.00 99 1012.3
20260904043317 75 46 0.0 0.0 0.00 0.00 0.00 99 1012.4
20260904042812 75 38 0.0 0.0 0.00 0.00 0.00 99 1012.3
20260904042309 75 24 0.0 0.0 0.00 0.00 0.00 99 1012.2
20260904041808 75 56 0.0 0.0 0.00 0.00 0.00 99 1012.0
20260904041305 75 57 0.0 0.0 0.00 0.00 0.00 99 1012.0
20260904040800 75 73 0.0 0.0 0.00 0.00 0.00 99 1012.1
20260904040255 75 71 0.0 0.0 0.00 0.00 0.00 99 1012.2
20260904035751 75 58 0.0 0.0 0.00 0.00 0.00 99 1012.3
20260904035247 75 74 0.0 0.0 0.00 0.00 0.00 99 1012.4
20260904034745 75 68 0.0 0.0 0.00 0.00 0.00 99 1012.4
20260904034242 76 71 0.0 0.0 0.00 0.00 0.00 99 1012.2
20260904033737 76 64 0.0 0.0 0.00 0.00 0.00 99 1012.3
20260904033234 76 64 0.0 0.0 0.00 0.00 0.00 99 1012.5
20260904032730 76 64 0.0 0.0 0.00 0.00 0.00 99 1012.3
20260904032228 76 67 0.0 0.0 0.00 0.00 0.00 99 1012.2
20260904031723 76 68 0.0 0.0 0.00 0.00 0.00 99 1012.4
20260904031219 76 59 0.0 0.0 0.00 0.00 0.00 99 1012.2
20260904030715 76 61 0.0 0.0 0.00 0.00 0.00 99 1012.3
20260904030209 76 66 0.0 0.0 0.00 0.00 0.00 99 1012.3
20260904025706 76 64 0.0 0.0 0.00 0.00 0.00 99 1012.5
20260904025201 76 68 0.0 0.0 0.00 0.00 0.00 99 1012.2
20260904024656 76 65 0.0 0.0 0.00 0.00 0.00 99 1012.3
20260904024152 77 64 0.0 0.0 0.00 0.00 0.00 99 1012.1
20260904023648 77 64 0.0 0.0 0.00 0.00 0.00 99 1012.4
20260904023144 77 63 0.0 0.0 0.00 0.00 0.00 98 1012.5
20260904022643 77 65 0.0 0.0 0.00 0.00 0.00 99 1012.4
20260904022140 77 68 0.0 0.0 0.00 0.00 0.00 98 1012.4
20260904021636 77 69 0.0 0.0 0.00 0.00 0.00 98 1012.5
20260904021130 77 64 0.0 0.0 0.00 0.00 0.00 98 1012.6
20260904020627 77 61 0.0 0.0 0.00 0.00 0.00 98 1012.7
20260904020121 77 65 0.0 0.0 0.00 0.00 0.00 98 1012.7
20260904015615 77 67 0.0 0.0 0.00 0.00 0.00 97 1012.6
20260904015114 78 67 0.0 0.0 0.00 0.00 0.00 97 1012.5
20260904014614 78 66 0.0 0.0 0.00 0.00 0.00 97 1012.5
20260904014109 78 69 0.0 0.0 0.00 0.00 0.00 97 1012.3
20260904013606 78 67 0.0 0.0 0.00 0.00 0.00 97 1012.5
20260904013102 78 67 0.0 0.0 0.00 0.00 0.00 96 1012.4
20260904012602 78 62 0.0 0.0 0.00 0.00 0.00 96 1012.3
20260904012056 78 61 0.0 0.0 0.00 0.00 0.00 96 1012.2
20260904011555 78 60 0.0 0.0 0.00 0.00 0.00 96 1012.3
20260904011051 79 66 0.0 0.0 0.00 0.00 0.00 96 1012.4
20260904010546 79 77 0.0 0.0 0.00 0.00 0.00 96 1011.9
20260904010043 79 67 0.0 0.0 0.00 0.00 0.00 95 1012.0
20260904005543 79 78 0.0 0.0 0.00 0.00 0.00 95 1012.1
20260904005038 80 73 0.0 0.0 0.00 0.00 0.00 94 1012.2
20260904004534 80 73 0.0 0.0 0.00 0.00 0.00 93 1012.1
20260904004028 80 73 0.0 0.0 0.00 0.00 0.00 93 1011.8
20260904003525 80 73 0.0 0.0 0.00 0.00 0.00 92 1012.0
20260904003020 80 73 0.0 0.0 0.00 0.00 0.00 92 1011.7
20260904002516 81 73 0.0 0.0 0.00 0.00 0.00 91 1011.7
20260904002015 81 73 0.0 0.0 0.00 0.00 0.00 91 1011.7
20260904001511 81 73 0.9 0.9 0.00 0.00 0.00 90 1011.6
20260904001010 81 73 0.9 0.9 0.00 0.00 0.00 90 1011.6
20260904000509 82 73 0.9 0.9 0.00 0.00 0.00 89 1011.6
20260904000006 82 73 0.9 0.9 0.00 0.00 0.00 88 1011.4
20260903235500 82 73 0.0 0.0 0.00 0.00 0.00 87 1011.7
20260903234955 83 73 0.0 0.0 0.00 0.00 0.00 86 1011.4
20260903234451 83 73 0.0 0.0 0.00 0.00 0.00 84 1011.6
20260903233947 83 72 0.0 0.0 0.00 0.00 0.00 84 1011.5
20260903233443 84 72 0.0 0.0 0.00 0.00 0.00 82 1011.4
20260903232937 84 72 0.0 0.0 0.00 0.00 0.00 82 1011.6
20260903232433 85 72 0.0 0.0 0.00 0.00 0.00 81 1011.3
20260903231932 85 72 0.0 0.0 0.00 0.00 0.00 80 1011.1
20260903231428 85 72 0.0 0.0 0.00 0.00 0.00 79 1011.3
20260903230922 86 72 0.0 0.0 0.00 0.00 0.00 78 1011.2
20260903230418 87 73 0.0 0.0 0.00 0.00 0.00 77 1011.2
20260903225914 87 70 0.9 0.9 0.00 0.00 0.00 75 1011.4
20260903225410 88 70 0.0 0.0 0.00 0.00 0.00 74 1011.0
20260903224906 89 70 0.9 0.9 0.00 0.00 0.00 72 1010.8
20260903224401 90 70 0.0 0.0 0.00 0.00 0.00 69 1011.2
20260903223857 91 71 0.0 0.0 0.00 0.00 0.00 68 1011.0
20260903223356 91 64 0.0 0.0 0.00 0.00 0.00 66 1011.0
20260903222851 91 62 0.0 0.0 0.00 0.00 0.00 65 1010.8
20260903222350 92 75 1.7 1.7 0.00 0.00 0.00 64 1010.9
20260903221845 92 78 1.7 1.7 0.00 0.00 0.00 63 1010.6
20260903221344 93 94 2.6 4.3 0.00 0.00 0.00 62 1010.7
20260903220842 93 86 1.7 1.7 0.00 0.00 0.00 62 1010.6
20260903220336 93 68 1.7 1.7 0.00 0.00 0.00 64 1010.7
20260903215835 93 69 0.9 1.7 0.00 0.00 0.00 63 1010.6
20260903215332 93 95 1.7 1.7 0.00 0.00 0.00 64 1010.6
20260903214829 93 114 0.0 0.9 0.00 0.00 0.00 63 1010.8
20260903214326 93 82 3.5 4.3 0.00 0.00 0.00 60 1010.7
20260903213820 93 77 4.3 5.2 0.00 0.00 0.00 60 1010.5
20260903213315 94 91 1.7 5.2 0.00 0.00 0.00 61 1010.7
20260903212812 93 72 2.6 2.6 0.00 0.00 0.00 60 1010.7
20260903212308 94 93 2.6 2.6 0.00 0.00 0.00 61 1010.7
20260903211807 94 107 4.3 6.1 0.00 0.00 0.00 60 1011.0
20260903211303 94 154 3.5 4.3 0.00 0.00 0.00 61 1010.9
20260903210759 94 17 3.5 5.2 0.00 0.00 0.00 58 1010.9
20260903210254 95 81 2.6 2.6 0.00 0.00 0.00 58 1011.2
20260903205754 95 98 4.3 5.2 0.00 0.00 0.00 58 1011.4
20260903205253 95 120 2.6 4.3 0.00 0.00 0.00 57 1011.5
20260903204749 96 78 4.3 5.2 0.00 0.00 0.00 58 1011.4
20260903204245 96 75 0.9 0.9 0.00 0.00 0.00 56 1011.5
20260903203740 96 65 2.6 2.6 0.00 0.00 0.00 55 1011.6
20260903203236 96 74 1.7 2.6 0.00 0.00 0.00 54 1011.5
20260903202729 96 75 0.9 1.7 0.00 0.00 0.00 57 1011.6
20260903202226 96 40 2.6 2.6 0.00 0.00 0.00 54 1011.6
20260903201725 95 71 0.9 1.7 0.00 0.00 0.00 56 1011.8
20260903201221 96 82 0.9 1.7 0.00 0.00 0.00 55 1011.9
20260903200719 95 71 3.5 4.3 0.00 0.00 0.00 54 1011.9
20260903200215 94 62 4.3 5.2 0.00 0.00 0.00 55 1012.2
20260903195710 94 97 2.6 4.3 0.00 0.00 0.00 55 1011.8
20260903195206 94 75 3.5 4.3 0.00 0.00 0.00 57 1011.9
20260903194706 94 77 4.3 5.2 0.00 0.00 0.00 56 1012.1
20260903194202 94 59 6.1 7.8 0.00 0.00 0.00 54 1012.2
20260903193657 94 95 2.6 2.6 0.00 0.00 0.00 55 1012.1
20260903193152 95 76 0.0 0.0 0.00 0.00 0.00 60 1012.2
20260903192648 94 69 1.7 2.6 0.00 0.00 0.00 59 1012.3
20260903192143 94 136 2.6 4.3 0.00 0.00 0.00 58 1012.4
20260903191639 94 78 0.9 0.9 0.00 0.00 0.00 58 1012.7
20260903191139 94 93 2.6 4.3 0.00 0.00 0.00 59 1012.6
20260903190639 93 90 1.7 2.6 0.00 0.00 0.00 60 1012.4
20260903190133 92 43 4.3 6.1 0.00 0.00 0.00 59 1012.7
20260903185628 91 65 4.3 6.1 0.00 0.00 0.00 61 1012.6
20260903185123 89 74 3.5 5.2 0.00 0.00 0.00 69 1012.9
20260903184620 90 70 0.9 1.7 0.00 0.00 0.00 74 1012.9
20260903184116 90 35 0.0 0.0 0.00 0.00 0.00 72 1012.8
20260903183614 92 34 0.0 0.9 0.00 0.00 0.00 73 1012.7
20260903183109 93 38 0.0 0.0 0.00 0.00 0.00 70 1012.7
20260903182608 94 60 0.0 0.9 0.00 0.00 0.00 61 1013.0
20260903182105 95 63 2.6 2.6 0.00 0.00 0.00 60 1012.8
20260903181603 95 106 0.0 0.9 0.00 0.00 0.00 62 1012.8
20260903181057 94 67 0.0 0.0 0.00 0.00 0.00 60 1012.9
20260903180553 94 60 0.0 0.0 0.00 0.00 0.00 59 1012.9
20260903180047 93 48 0.0 0.0 0.00 0.00 0.00 62 1012.9
20260903175546 93 49 0.0 0.0 0.00 0.00 0.00 62 1012.9
20260903175046 95 284 1.7 2.6 0.00 0.00 0.00 60 1013.1
20260903174540 98 311 1.7 2.6 0.00 0.00 0.00 58 1013.0
20260903174035 98 313 0.0 0.0 0.00 0.00 0.00 54 1013.0
20260903173530 98 61 0.0 0.0 0.00 0.00 0.00 52 1013.2
20260903173027 98 73 0.0 0.0 0.00 0.00 0.00 51 1013.1
20260903172521 96 71 1.7 1.7 0.00 0.00 0.00 54 1013.3
20260903172017 96 42 0.0 0.0 0.00 0.00 0.00 54 1013.2
20260903171511 96 53 0.9 0.9 0.00 0.00 0.00 55 1013.5
20260903171006 96 57 0.0 0.0 0.00 0.00 0.00 57 1013.5
20260903170500 96 72 1.7 1.7 0.00 0.00 0.00 56 1013.5
20260903170000 96 77 1.7 2.6 0.00 0.00 0.00 60 1013.7
20260903165453 95 63 0.9 0.9 0.00 0.00 0.00 58 1013.7
20260903164948 96 81 4.3 5.2 0.00 0.00 0.00 55 1013.5
20260903164438 95 22 0.0 0.0 0.00 0.00 0.00 58 1013.9
20260903163937 94 37 0.9 0.9 0.00 0.00 0.00 58 1013.6
20260903163433 95 357 0.9 1.7 0.00 0.00 0.00 55 1013.9
20260903162930 94 67 0.0 0.0 0.00 0.00 0.00 64 1013.8
20260903162426 94 358 1.7 1.7 0.00 0.00 0.00 60 1014.0
20260903161921 94 63 0.9 0.9 0.00 0.00 0.00 62 1014.0
20260903161416 93 26 0.9 1.7 0.00 0.00 0.00 63 1014.0
20260903160912 93 46 0.9 2.6 0.00 0.00 0.00 64 1013.9
20260903160411 93 353 3.5 4.3 0.00 0.00 0.00 63 1014.0
20260903155910 93 65 0.0 0.0 0.00 0.00 0.00 64 1014.2
20260903155405 92 22 1.7 1.7 0.00 0.00 0.00 66 1013.9
20260903154901 92 34 0.0 0.0 0.00 0.00 0.00 66 1014.0
20260903154357 92 66 0.0 0.0 0.00 0.00 0.00 68 1014.0
20260903153857 92 52 0.0 0.0 0.00 0.00 0.00 68 1014.1
20260903153352 92 66 0.9 0.9 0.00 0.00 0.00 66 1014.1
20260903152849 91 38 0.0 0.9 0.00 0.00 0.00 68 1014.0
20260903152344 91 38 0.0 0.9 0.00 0.00 0.00 68 1014.0